Retour au catalogue

DELTA 1 DEB

ActifPO
NORAD 21972·DEBRIS·🇺🇸 United States

Lancé Jun 12, 1975 depuis Vandenberg Space Force Base

Loading…

Prochains Passages (prochaines 24 heures)

TLE

FraisSource: Space-Track

Époque: Sep 14, 2026, 00:22 UTC

1 21972U 75052JW  26257.01592013  .00000110  00000-0  42791-3 0  9991
2 21972  99.5927  91.2507 0334603 253.5413 264.3668 12.92146692625875

Suivez DELTA 1 DEB en temps réel avec AllMySat

Download on the App Store